Weather History for Hot Springs, VA

Change the Weather History Date:

Friday, March 21, 2014

  Actual Average Record
Temperature  
Mean Temperature 44 °F -  
Max Temperature 55 °F 45 °F 68 °F (2011)
Min Temperature 33 °F 28 °F 12 °F (2013)
Degree Days  
Heating Degree Days 21    
Moisture  
Dew Point 23 °F    
Average Humidity 48    
Maximum Humidity 65    
Minimum Humidity 28    
Precipitation  
Precipitation 0.00 in - - ()
Sea Level Pressure  
Sea Level Pressure 30.04 in    
Wind  
Wind Speed 17 mph (West)    
Max Wind Speed 23 mph    
Max Gust Speed 30 mph    
Visibility 10 miles    
Events      
Averages and records for this station are not official NWS values.
T = Trace of Precipitation, MM = Missing Value Source: NWS Daily Summary

Daily Weather History Graph

Daily Weather History Graph

Search for Another Location

Airport:

Trip Planner

Search our weather history database for the weather conditions in past years. The results will help you decide how hot, cold, wet, or windy it might be!

Date:

Astronomy

Mar. 21, 2014 Rise Set
Actual Time 7:21 AM EDT 7:32 PM EDT
Civil Twilight 6:55 AM EDT 7:58 PM EDT
Nautical Twilight 6:24 AM EDT 8:29 PM EDT
Astronomical Twilight 5:53 AM EDT 9:00 PM EDT
Moon No Moon Rise 10:16 AM EDT (3/21)
Length of Visible Light 13h 03m
Length of Day
12h 10m
Waning Gibbous, 75% of the Moon is Illuminated
Mar 21
Waning Gibbous
Mar 23
Last Quarter
Mar 30
New
Apr 7
First Quarter
Apr 15
Full

Hourly Weather History & Observations

Time (EDT) Temp. Windchill Dew Point Humidity Pressure Visibility Wind Dir Wind Speed Gust Speed Precip Events Conditions
12:16 AM 33.8 °F 22.2 °F 19.4 °F 56% 30.00 in 10.0 mi West 20.7 mph 26.5 mph N/A   Clear
12:36 AM 33.8 °F 22.2 °F 19.4 °F 56% 30.00 in 10.0 mi West 20.7 mph - N/A   Clear
12:56 AM 33.8 °F 22.8 °F 19.4 °F 56% 30.00 in 10.0 mi West 18.4 mph 24.2 mph N/A   Clear
1:16 AM 33.8 °F 22.5 °F 19.4 °F 56% 30.00 in 10.0 mi West 19.6 mph 28.8 mph N/A   Clear
1:36 AM 33.8 °F 21.9 °F 19.4 °F 56% 30.00 in 10.0 mi West 21.9 mph 26.5 mph N/A   Clear
1:50 AM 33.8 °F 22.2 °F 19.4 °F 56% 30.00 in 10.0 mi West 20.7 mph 28.8 mph N/A   Scattered Clouds
2:15 AM 33.8 °F 22.8 °F 21.2 °F 60% 30.00 in 10.0 mi West 18.4 mph 26.5 mph N/A   Scattered Clouds
2:30 AM 33.8 °F 22.5 °F 21.2 °F 60% 30.00 in 10.0 mi West 19.6 mph 27.6 mph N/A   Clear
2:56 AM 33.8 °F 22.8 °F 21.2 °F 60% 30.00 in 10.0 mi West 18.4 mph 28.8 mph N/A   Scattered Clouds
3:16 AM 33.8 °F 22.2 °F 21.2 °F 60% 30.00 in 10.0 mi West 20.7 mph 27.6 mph N/A   Clear
3:30 AM 33.8 °F 22.2 °F 21.2 °F 60% 29.99 in 10.0 mi West 20.7 mph 27.6 mph N/A   Scattered Clouds
3:56 AM 33.8 °F 21.9 °F 21.2 °F 60% 29.99 in 10.0 mi West 21.9 mph 29.9 mph N/A   Scattered Clouds
4:16 AM 33.8 °F 22.2 °F 23.0 °F 65% 29.99 in 10.0 mi West 20.7 mph 27.6 mph N/A   Scattered Clouds
4:36 AM 33.8 °F 22.8 °F 23.0 °F 65% 29.99 in 10.0 mi West 18.4 mph 23.0 mph N/A   Clear
4:56 AM 33.8 °F 23.2 °F 23.0 °F 65% 29.99 in 10.0 mi West 17.3 mph 26.5 mph N/A   Clear
5:16 AM 33.8 °F 22.5 °F 23.0 °F 65% 29.99 in 10.0 mi West 19.6 mph 25.3 mph N/A   Clear
5:36 AM 33.8 °F 22.5 °F 23.0 °F 65% 30.00 in 10.0 mi West 19.6 mph 25.3 mph N/A   Clear
5:56 AM 33.8 °F 22.8 °F 23.0 °F 65% 30.00 in 10.0 mi West 18.4 mph 26.5 mph N/A   Clear
6:16 AM 33.8 °F 23.2 °F 23.0 °F 65% 30.01 in 10.0 mi West 17.3 mph 26.5 mph N/A   Scattered Clouds
6:36 AM 33.8 °F 23.9 °F 23.0 °F 65% 30.02 in 10.0 mi West 15.0 mph 24.2 mph N/A   Clear
6:40 AM 33.8 °F 23.2 °F 23.0 °F 65% 30.02 in 10.0 mi West 17.3 mph 24.2 mph N/A   Clear
7:16 AM 33.8 °F 22.8 °F 23.0 °F 65% 30.03 in 10.0 mi West 18.4 mph 26.5 mph N/A   Clear
7:36 AM 33.8 °F 23.2 °F 23.0 °F 65% 30.04 in 10.0 mi West 17.3 mph - N/A   Clear
7:56 AM 33.8 °F 22.8 °F 23.0 °F 65% 30.05 in 10.0 mi West 18.4 mph 25.3 mph N/A   Clear
8:16 AM 35.6 °F 24.0 °F 23.0 °F 60% 30.05 in 10.0 mi West 23.0 mph 27.6 mph N/A   Clear
8:20 AM 35.6 °F 24.2 °F 23.0 °F 60% 30.05 in 10.0 mi West 21.9 mph 27.6 mph N/A   Clear
8:40 AM 35.6 °F 24.8 °F 23.0 °F 60% 30.05 in 10.0 mi West 19.6 mph 26.5 mph N/A   Clear
8:50 AM 35.6 °F 24.5 °F 23.0 °F 60% 30.05 in 10.0 mi West 20.7 mph 26.5 mph N/A   Clear
9:15 AM 37.4 °F 27.2 °F 24.8 °F 60% 30.05 in 10.0 mi West 19.6 mph 24.2 mph N/A   Clear
9:35 AM 37.4 °F 26.9 °F 24.8 °F 60% 30.06 in 10.0 mi West 20.7 mph 25.3 mph N/A   Clear
9:55 AM 39.2 °F 30.2 °F 24.8 °F 56% 30.06 in 10.0 mi WNW 17.3 mph - N/A   Clear
10:15 AM 39.2 °F 31.2 °F 24.8 °F 56% 30.06 in 10.0 mi WNW 13.8 mph 18.4 mph N/A   Clear
10:35 AM 42.8 °F 35.4 °F 26.6 °F 53% 30.07 in 10.0 mi West 15.0 mph 19.6 mph N/A   Clear
10:55 AM 42.8 °F 36.2 °F 26.6 °F 53% 30.08 in 10.0 mi West 12.7 mph - N/A   Clear
11:15 AM 44.6 °F 38.4 °F 26.6 °F 49% 30.08 in 10.0 mi West 12.7 mph 18.4 mph N/A   Clear
11:30 AM 44.6 °F 38.1 °F 26.6 °F 49% 30.08 in 10.0 mi West 13.8 mph 20.7 mph N/A   Clear
11:55 AM 46.4 °F 40.7 °F 26.6 °F 46% 30.08 in 10.0 mi West 12.7 mph 28.8 mph N/A   Clear
12:15 PM 46.4 °F 39.0 °F 26.6 °F 46% 30.08 in 10.0 mi West 19.6 mph 26.5 mph N/A   Clear
12:35 PM 46.4 °F 40.1 °F 26.6 °F 46% 30.08 in 10.0 mi West 15.0 mph 24.2 mph N/A   Clear
12:55 PM 48.2 °F - 26.6 °F 43% 30.08 in 10.0 mi WSW 17.3 mph 25.3 mph N/A   Clear
1:15 PM 48.2 °F - 26.6 °F 43% 30.08 in 10.0 mi West 16.1 mph 25.3 mph N/A   Clear
2:16 PM 51.8 °F - 26.6 °F 38% 30.06 in 10.0 mi West 9.2 mph 26.5 mph N/A   Clear
2:36 PM 51.8 °F - 26.6 °F 38% 30.06 in 10.0 mi West 11.5 mph 25.3 mph N/A   Clear
3:00 PM 53.6 °F - 26.6 °F 35% 30.05 in 10.0 mi West 11.5 mph - N/A   Clear
3:15 PM 53.6 °F - 26.6 °F 35% 30.05 in 10.0 mi West 9.2 mph 24.2 mph N/A   Clear
3:40 PM 53.6 °F - 26.6 °F 35% 30.04 in 10.0 mi WSW 12.7 mph 25.3 mph N/A   Clear
3:55 PM 53.6 °F - 26.6 °F 35% 30.04 in 10.0 mi West 13.8 mph 25.3 mph N/A   Clear
4:15 PM 55.4 °F - 26.6 °F 33% 30.04 in 10.0 mi WSW 17.3 mph 28.8 mph N/A   Clear
4:35 PM 53.6 °F - 24.8 °F 33% 30.04 in 10.0 mi West 15.0 mph 21.9 mph N/A   Clear
4:55 PM 53.6 °F - 24.8 °F 33% 30.04 in 10.0 mi West 13.8 mph 23.0 mph N/A   Clear
5:36 PM 53.6 °F - 23.0 °F 30% 30.04 in 10.0 mi West 16.1 mph 28.8 mph N/A   Clear
5:56 PM 53.6 °F - 21.2 °F 28% 30.04 in 10.0 mi West 15.0 mph 20.7 mph N/A   Clear
6:30 PM 53.6 °F - 23.0 °F 30% 30.05 in 10.0 mi West 15.0 mph 19.6 mph N/A   Clear
6:56 PM 51.8 °F - 21.2 °F 30% 30.05 in 10.0 mi West 11.5 mph - N/A   Clear
7:16 PM 50.0 °F - 21.2 °F 32% 30.05 in 10.0 mi WSW 5.8 mph - N/A   Clear
7:36 PM 50.0 °F - 21.2 °F 32% 30.05 in 10.0 mi SW 8.1 mph - N/A   Clear
7:40 PM 50.0 °F - 19.4 °F 30% 30.05 in 10.0 mi SW 8.1 mph - N/A   Clear
8:15 PM 50.0 °F - 19.4 °F 30% 30.04 in 10.0 mi SSW 3.5 mph - N/A   Clear
8:35 PM 50.0 °F - 19.4 °F 30% 30.05 in 10.0 mi SSW 5.8 mph - N/A   Clear
8:55 PM 50.0 °F - 19.4 °F 30% 30.05 in 10.0 mi SSW 5.8 mph - N/A   Clear
9:15 PM 50.0 °F - 19.4 °F 30% 30.05 in 10.0 mi SSW 6.9 mph - N/A   Clear
9:35 PM 50.0 °F - 19.4 °F 30% 30.05 in 10.0 mi SSE 6.9 mph - N/A   Clear
9:55 PM 48.2 °F - 21.2 °F 34% 30.04 in 10.0 mi South 8.1 mph - N/A   Clear
10:15 PM 48.2 °F - 21.2 °F 34% 30.04 in 10.0 mi SSW 10.4 mph - N/A   Clear
10:50 PM 48.2 °F - 23.0 °F 37% 30.04 in 10.0 mi SSW 13.8 mph 18.4 mph N/A   Clear
11:16 PM 48.2 °F - 23.0 °F 37% 30.04 in 10.0 mi SSW 12.7 mph 19.6 mph N/A   Clear
11:20 PM 48.2 °F - 23.0 °F 37% 30.04 in 10.0 mi SSW 15.0 mph 19.6 mph N/A   Clear
11:35 PM 48.2 °F - 23.0 °F 37% 30.04 in 10.0 mi SSW 15.0 mph 21.9 mph N/A   Clear
11:55 PM 48.2 °F - 23.0 °F 37% 30.04 in 10.0 mi SW 17.3 mph 24.2 mph N/A   Clear